Regional Weather Roundup
Issued by NWS Sioux Falls, SD

Home | Current Version | Previous Version | Graphics & Text | Print | Product List | Glossary On
Versions: 1 2 3 4 5 6 7 8 9 10 11 12 13 14 15 16 17 18 19 20 21 22 23 24 25 26 27 28 29 30 31 32 33 34 35 36 37 38 39 40 41 42 43 44 45 46 47 48 49 50
000
ASUS43 KFSD 250102
RWRFSD

WEATHER ROUNDUP FOR SE SOUTH DAKOTA/SW MINNESOTA/NW IOWA
NATIONAL WEATHER SERVICE SIOUX FALLS SD
700 PM CST FRI FEB 24 2017

NOTE: "FAIR" INDICATES FEW OR NO CLOUDS BELOW 12,000 FEET WITH NO
SIGNIFICANT WEATHER AND OR OBSTRUCTIONS TO VISIBILITY.


SDZ038>040-050-052>070-250200-
SOUTHEAST SOUTH DAKOTA

CITY           SKY/WX    TMP DP  RH WIND       PRES   REMARKS
BROOKINGS      FLURRIES  22  14  71 N20G28    29.99R WCI   7
CHAMBERLAIN    CLEAR     30  13  51 NW13      30.10R WCI  20
HURON          CLOUDY    25  16  68 N16       30.08R WCI  12
MADISON        FAIR      23  18  80 N18G28    30.00R WCI   9
MITCHELL       PTCLDY    28  17  63 N15       30.07R WCI  16
SIOUX FALLS    CLOUDY    24  15  68 N22G32    29.99R WCI   9
WINNER         FAIR      23  14  68 NW8       30.11R WCI  14
YANKTON        CLOUDY    25  14  63 W10       30.02R WCI  15
$$

MNZ071-072-080-081-089-090-097-098-250200-
SOUTHWEST MINNESOTA

CITY           SKY/WX    TMP DP  RH WIND       PRES   REMARKS
FAIRMONT       FLURRIES  22  15  75 N23       29.87R WCI   6
JACKSON        CLOUDY    23  16  74 NW20G30   29.88R WCI   8
LUVERNE        CLOUDY    25  14  63 N18G25    29.97R WCI  11
MARSHALL       FLURRIES  23  15  71 N26G33    29.97R WCI   6
MONTEVIDEO     CLOUDY    25  16  68 N20G29    30.00R WCI  11
PIPESTONE      CLOUDY    23  12  63 N20G33    29.96R WCI   8
REDWOOD FALLS  CLOUDY    25  12  58 NW15G25   29.93R WCI  13
TRACY          CLOUDY    25  16  70 N23G33    29.96R WCI  10
WINDOM         PTCLDY    23  16  74 NW24      29.90R WCI   7
WORTHINGTON    CLOUDY    22  17  81 N28G36    29.92R WCI   4
$$

IAZ001>003-012>014-020>022-031-032-NEZ013-014-SDZ071-250200-
NORTHWEST IOWA

CITY           SKY/WX    TMP DP  RH WIND       PRES   REMARKS
CHEROKEE       PTCLDY    23  17  77 N15G25    29.93R WCI  10
DENISON        MOCLDY    23  16  74 NW17G23   29.91R WCI   9
ESTHERVILLE    PTCLDY    21  15  78 N20       29.87R WCI   6
LE MARS        CLOUDY    25  16  68 N15G22    29.98R WCI  12
SHELDON        MIX PCPN  23  21  93 N26G32    29.92R WCI   6
SIOUX CITY     CLEAR     26  17  68 NW15      29.98R WCI  14
SPENCER        CLOUDY    22  16  78 N21       29.90R WCI   6
STORM LAKE     CLOUDY    21  16  79 NW21G29   29.89R HAZE    WCI   6
$$

ABBREVIATIONS USED IN REMARKS
   TC - TEMPERATURE IN CELSIUS
  WCI - WIND CHILL INDEX
   HX - HEAT INDEX
  VSB - VISIBILITY





USA.gov is the U.S. government's official web portal to all federal, state and local government web resources and services.